Home   Weather   Lustenau   Past weeks

Flag for Austria Past Weather in Lustenau, Vorarlberg, Austria — Yesterday and Last 2 Weeks

Now
32 °F

Passing clouds.


Feels Like: 32 °F
Forecast: 27 / 46 °F
Wind: 2 mph from West

Location: Saint Gallen-Altenrhein

Current Time: Dec 4, 2016 at 9:36:47 pm

Latest Report: Dec 4, 2016 at 9:20 pm


Visibility: 4 mi

Pressure: 30.30 "Hg

Humidity: 93%

Dew Point: 30 °F

Location of LustenauLocation

Past Weather in Lustenau — Graph

°F

Lustenau Temperature Yesterday

Maximum temperature yesterday: 39 °F (at 11:50 am)
Minimum temperature yesterday: 25 °F (at 2:20 am)
Average temperature yesterday: 32 °F

High & Low Weather Summary for the Past Weeks

 TemperatureHumidityPressure
High70 °F (Nov 21, 12:20 pm)100% (Nov 23, 2:20 am)30.57 "Hg (Nov 23, 2:20 am)
Low23 °F (Nov 29, 7:20 am)26% (Nov 22, 12:20 am)29.56 "Hg (Nov 21, 11:50 am)
Average41 °F82%30.07 "Hg
* Reported Nov 19 8:20 pm — Dec 4 8:20 pm, Lustenau, Weather by CustomWeather, © 2016

Note: Actual official high and low records may vary slightly from our data, if they occured in-between our weather recording intervals... More about our weather records

Advertising

Lustenau Weather History for the Previous 24 Hours

Scroll right to see more
 ConditionsComfort  
Time TempWeatherWind HumidityBarometerVisibility
8:20 pm
Sun, Dec 4
30 °FPassing clouds.3 mph93%30.30 "Hg4 mi
7:50 pm30 °FPassing clouds.3 mph100%30.30 "HgN/A
7:20 pm28 °FPassing clouds.2 mph100%30.30 "HgN/A
6:50 pm30 °FPassing clouds.2 mph100%30.27 "HgN/A
6:20 pm32 °FPassing clouds.2 mph93%30.27 "HgN/A
5:50 pm34 °FPassing clouds.2 mph87%30.27 "HgN/A
5:20 pm34 °FPassing clouds.2 mph87%30.27 "HgN/A
4:50 pm34 °FPassing clouds.2 mph87%30.27 "HgN/A
4:20 pm34 °FSunny.2 mph81%30.27 "Hg10 mi
3:50 pm37 °FSunny.3 mph75%30.27 "Hg10 mi
3:20 pm37 °FSunny.6 mph81%30.27 "Hg10 mi
2:50 pm37 °FPassing clouds.5 mph81%30.27 "HgN/A
2:20 pm37 °FPassing clouds.3 mph75%30.27 "HgN/A
1:50 pm37 °FPassing clouds.3 mph75%30.27 "HgN/A
1:20 pm37 °FPassing clouds.5 mph75%30.27 "HgN/A
12:50 pm36 °FScattered clouds.3 mph75%30.27 "HgN/A
12:20 pm37 °FScattered clouds.5 mph75%30.27 "HgN/A
11:50 am36 °FScattered clouds.2 mph75%30.27 "HgN/A
11:20 am36 °FScattered clouds.5 mph81%30.27 "HgN/A
10:50 am36 °FScattered clouds.5 mph75%30.27 "HgN/A
10:20 am36 °FPartly sunny.7 mph75%30.27 "HgN/A
9:50 am34 °FPartly sunny.6 mph81%30.27 "HgN/A
9:20 am32 °FOvercast.8 mph87%30.27 "HgN/A
8:50 am34 °FOvercast.8 mph81%30.27 "HgN/A
8:20 am32 °FOvercast.7 mph87%30.27 "HgN/A
7:50 am32 °FOvercast.8 mph87%30.24 "HgN/A
7:20 am34 °FOvercast.7 mph81%30.24 "HgN/A
6:50 am34 °FOvercast.7 mph81%30.24 "HgN/A
6:20 am34 °FOvercast.6 mph81%30.24 "HgN/A
5:50 am34 °FOvercast.3 mph87%30.24 "HgN/A
5:20 am34 °FOvercast.3 mph87%30.24 "HgN/A
4:50 am36 °FOvercast.3 mph81%30.24 "HgN/A
4:20 am36 °FOvercast.3 mph87%30.21 "Hg6 mi
3:50 am36 °FOvercast.2 mph87%30.24 "HgN/A
3:20 am36 °FPassing clouds.2 mph87%30.24 "HgN/A
2:50 am36 °FOvercast.2 mph87%30.24 "HgN/A
2:20 am36 °FOvercast.3 mph87%30.21 "HgN/A
1:50 am36 °FOvercast.5 mph87%30.21 "HgN/A
1:20 am36 °FOvercast.3 mph87%30.21 "HgN/A
12:50 am36 °FPassing clouds.3 mph87%30.21 "HgN/A
12:20 am34 °FPartly cloudy.3 mph93%30.21 "HgN/A
11:50 pm
Sat, Dec 3
36 °FOvercast.2 mph87%30.21 "HgN/A
11:20 pm34 °FOvercast.3 mph93%30.21 "HgN/A
10:50 pm34 °FOvercast.No wind93%30.18 "HgN/A
10:20 pm34 °FOvercast.2 mph93%30.18 "HgN/A
9:50 pm36 °FOvercast.3 mph87%30.18 "HgN/A
9:20 pm34 °FPassing clouds.3 mph93%30.18 "HgN/A
Weather by CustomWeather, © 2016

See weather overviewHow to use our weather pages